Tracking 30918 objects as of 2-Jul-2025
HD Live streaming from Space Station
objects crossing your sky now

STARLINK-6187

Track STARLINK-6187 now!
10-day predictions
STARLINK-6187 is classified as:


NORAD ID: 56546
Int'l Code: 2023-065AV
Perigee: 565.0 km
Apogee: 567.4 km
Inclination: 43.0 °
Period: 95.8 minutes
Semi major axis: 6937 km
RCS: Unknown
Launch date: May 14, 2023
Source: United States (US)
Launch site: AIR FORCE EASTERN TEST RANGE (AFETR)
Your satellite tracking list
Your tracking list is empty




NASA's NSSDC Master Catalog

Two Line Element Set (TLE):
1 56546U 23065AV  25182.92212558 -.00000804  00000-0 -44451-4 0  9990
2 56546  43.0034 145.8832 0001770 254.5094 105.5553 15.02537867118757
Source of the keplerian elements: AFSPC